Location: *
(48.2364°N, 6.7242°E)
Time: 18:26:41
(UTC+00:00)

Daily predictions for brighter satellites

Satellite Brightness Start Highest point End
(mag) Time Altitude Azimuth Time Altitude Azimuth Time Altitude Azimuth
CZ-4C R/B 3.0 17:03:22 10° NW 17:10:28 81° NE 17:18:38 10° SE
SKYMED 2 4.2 17:09:45 10° NNE 17:13:46 35° E 17:17:45 10° SSE
GP-B 3.8 17:10:42 10° N 17:15:06 60° W 17:19:28 10° SSW
Cosmos 1607 4.3 17:09:39 10° SW 17:15:47 67° NW 17:21:56 10° NE
Unknown 4.3 17:13:14 10° SSW 17:17:06 39° SE 17:20:58 10° ENE
Unknown 4.3 17:14:56 10° SSW 17:18:49 40° SE 17:22:42 10° ENE
ATLAS 5 CENTAUR R/B 2.0 17:14:48 10° SSW 17:18:50 44° ESE 17:23:19 10° NE
Unknown 4.2 17:16:31 10° SSW 17:20:24 41° SE 17:24:19 10° ENE
YAOGAN 1 3.0 17:17:29 10° SE 17:21:30 39° ENE 17:25:33 10° N
H-2A R/B 4.0 17:20:42 10° ENE 17:21:52 11° NE 17:23:03 10° NE
Unknown 4.2 17:18:12 10° SSW 17:22:07 42° SE 17:26:02 10° ENE
Unknown 4.0 17:23:46 10° WNW 17:26:37 32° N 17:29:30 10° ENE
SL-4 R/B 1.8 17:23:43 10° WNW 17:27:40 85° SSW 17:31:20 10° ESE
Gbstr 26 Del rocket 4.2 17:22:09 10° W 17:27:51 64° N 17:34:51 10° E
Unknown 3.9 17:24:41 10° SW 17:28:39 51° SE 17:32:38 10° ENE
Unknown 4.0 17:24:44 10° SW 17:28:43 46° SE 17:32:42 10° ENE
Unknown 4.0 17:26:21 10° SW 17:30:20 48° SE 17:34:18 10° ENE
Cosmos 2263 Rocket 3.3 17:26:32 10° SW 17:32:00 47° NW 17:37:27 10° NNE
Unknown 4.0 17:28:02 10° SW 17:32:02 49° SE 17:35:55 11° ENE
EO 1 Delta rocket 4.4 17:28:56 10° SE 17:33:09 36° ENE 17:37:31 10° N
Okean-O 3.4 17:29:05 10° S 17:33:26 57° WSW 17:37:51 10° NNW
Unknown 3.9 17:29:40 10° SW 17:33:40 50° SE 17:37:30 11° ENE
CSL-04 Rocket 3.8 17:28:17 10° SSE 17:33:43 59° ENE 17:39:08 10° N
NOSS 2-1 (E) 4.5 17:29:54 10° NW 17:35:17 77° NE 17:42:50 10° SE
Unknown 3.9 17:31:16 10° SW 17:35:18 51° SE 17:39:04 12° ENE
CZ-2D R/B 4.1 17:32:10 10° SE 17:35:31 29° ENE 17:38:52 10° N
Cosmos 1726 Rocket 3.9 17:32:20 10° SSE 17:36:31 43° E 17:40:41 10° NNE
Cosmos 2239 Rocket 4.4 17:30:49 10° N 17:36:58 66° ENE 17:43:04 10° SSE
Cosmos 1271 Rocket 2.8 17:33:29 10° N 17:37:24 59° ENE 17:41:20 10° SSE
Unknown 3.9 17:34:38 10° SW 17:38:41 54° SE 17:42:20 12° ENE
Cosmos 724 4.4 17:33:56 10° SSW 17:40:04 76° ESE 17:46:07 10° NE
Starlink (trailer) 3.8 17:36:15 10° SW 17:40:18 56° SE 17:43:54 13° ENE
BREEZE M DEB (TANK) 1.6 17:38:26 10° WNW 17:40:36 87° S 17:44:18 12° ESE
Unknown 3.8 17:37:55 10° SW 17:41:59 57° SE 17:45:31 13° ENE
Cosmos 1605 Rocket 4.5 17:36:49 10° N 17:42:34 37° ENE 17:48:12 10° SE
Cosmos 1821 Rocket 3.9 17:36:39 10° N 17:42:47 80° E 17:48:54 10° SSE
Unknown 3.5 17:39:15 10° SW 17:43:17 74° SSE 17:46:49 13° ENE
Unknown 3.8 17:39:32 10° SW 17:43:36 58° SSE 17:47:05 14° ENE
Cosmos 1953 2.3 17:39:41 10° S 17:43:44 74° E 17:47:49 10° NNE
Cosmos 2058 Rocket 3.6 17:39:48 10° SSE 17:43:44 34° E 17:47:42 10° NNE
Lacrosse 5 3.0 17:39:28 10° NW 17:44:00 32° N 17:47:59 13° ENE
Shenzhou-11 Module 3.9 17:43:28 10° SSW 17:45:12 15° SSE 17:46:27 12° SE
Cosmos 1833 Rocket 3.8 17:41:38 10° N 17:46:17 26° NE 17:49:44 15° E
Cosmos 1758 4.0 17:44:45 10° SSW 17:48:39 57° WNW 17:52:36 10° N
Cosmos 1703 3.9 17:46:03 10° N 17:49:42 34° ENE 17:53:19 10° SE
Unknown 3.7 17:46:08 10° SW 17:50:14 65° SSE 17:53:28 16° ENE
Unknown 3.7 17:46:12 10° SW 17:50:18 65° SSE 17:53:32 16° ENE
Nadezhda 3 Rocket 4.0 17:44:18 10° S 17:50:34 85° E 17:56:57 10° N
Unknown 3.7 17:47:00 10° SW 17:51:06 65° SSE 17:54:17 16° ENE
COBE Rocket 4.1 17:46:16 10° N 17:51:30 83° WNW 17:56:37 10° SSW
Cosmos 2228 3.0 17:49:16 10° S 17:53:37 69° E 17:57:59 10° NNE
Cosmos 1626 3.9 17:50:46 10° NNW 17:54:13 37° W 17:57:39 10° SSW
Unknown 3.6 17:51:06 10° SW 17:55:13 69° SSE 17:58:16 18° ENE
Unknown 3.6 17:51:07 10° SW 17:55:14 70° SSE 17:58:17 18° ENE
Unknown 3.6 17:52:51 10° SW 17:56:59 73° SSE 17:59:59 18° ENE
COSMOS 2406 3.4 17:51:34 10° NNW 17:57:14 52° NE 18:02:51 10° SE
Cosmos 1535 Rocket 4.4 17:51:06 10° N 17:57:21 69° E 18:03:28 10° SSE
Cosmos 1934 Rocket 4.0 17:53:08 10° N 17:59:26 70° E 18:05:46 10° SSE
Envisat 3.8 17:54:38 10° S 17:59:38 57° W 18:04:39 10° NNW
Unknown 3.6 17:56:09 10° SW 18:00:17 76° SSE 18:03:10 19° ENE
Unknown 3.6 17:56:48 10° SW 18:00:55 75° SSE 18:03:45 20° ENE
Cosmos 2082 Rocket 3.4 17:56:57 10° N 18:01:36 25° NE 18:04:05 19° E
Unknown 3.6 17:57:45 10° SW 18:01:53 76° SSE 18:04:41 20° ENE
COSMO-SKYMED 1 2.7 17:57:38 10° N 18:02:00 77° WNW 18:06:20 10° SSW
Cosmos 1726 2.3 17:59:55 10° SSE 18:03:25 44° E 18:06:56 10° NNE
Meteor 1-11 4.4 17:59:01 10° N 18:04:38 53° ENE 18:10:17 10° SSE
Unknown 3.5 18:00:57 10° SW 18:05:05 77° SSE 18:07:45 21° ENE
Cosmos 1939 Rocket 2.9 18:01:42 10° SSE 18:05:33 55° ENE 18:09:30 10° N
Cosmos 921 Rocket 3.1 18:01:32 10° S 18:05:57 55° ESE 18:10:21 10° NNE
ATLAS CENTAUR R/B 4.2 18:04:52 10° NNW 18:06:22 11° N 18:07:51 10° N
Cosmos 292 Rocket 4.3 18:02:07 10° SSE 18:06:25 35° ESE 18:10:45 10° NE
Cosmos 482 Debris 4.2 18:03:03 10° WNW 18:08:19 81° SSW 18:10:07 26° ESE
Unknown 3.5 18:04:22 10° WSW 18:08:30 83° SSE 18:11:03 23° ENE
Unknown 3.5 18:06:00 10° WSW 18:10:10 84° SSE 18:12:38 24° ENE
Unknown 3.5 18:07:43 10° WSW 18:11:52 86° SSE 18:14:17 24° ENE
CSL-04 Debris 4.5 18:07:09 10° S 18:12:34 71° WSW 18:18:03 10° NNW
Unknown 3.5 18:09:22 10° WSW 18:13:31 88° SSE 18:15:52 25° ENE
Cosmos 1356 3.5 18:10:19 10° S 18:13:39 50° E 18:17:01 10° NNE
Lacrosse 5 rocket 1.6 18:11:16 10° WNW 18:14:59 59° SW 18:17:44 18° SE
Cosmos 1953 Rocket 4.1 18:11:34 10° NNW 18:15:54 60° W 18:20:11 10° S
Unknown 3.5 18:12:39 10° WSW 18:16:49 89° N 18:19:02 27° ENE
USA 116 3.3 18:14:54 10° N 18:18:00 73° WNW 18:21:11 10° SSW
Unknown 3.6 18:14:24 10° WSW 18:18:33 87° NNW 18:20:42 28° ENE
Unknown 3.6 18:16:00 10° WSW 18:20:10 86° NNW 18:22:15 29° ENE
Cosmos 2084 3.4 18:16:17 10° SW 18:20:49 80° SE 18:24:06 18° NE
Unknown 3.6 18:17:37 10° WSW 18:21:46 86° NNW 18:23:47 30° ENE
Unknown 3.6 18:18:16 10° WSW 18:22:26 84° NNW 18:24:25 30° ENE
CZ-4 R/B 3.0 18:18:44 10° SSW 18:22:37 39° W 18:26:35 10° NNW
Unknown 3.6 18:20:48 10° WSW 18:24:57 86° NNW 18:26:49 32° ENE
FALCON 9 DEB 4.2 18:22:09 10° WNW 18:25:25 36° N 18:26:23 29° NE
Unknown 4.2 18:22:40 10° WNW 18:25:58 36° N 18:27:00 29° NE
Meteor 1-16 Rocket 4.2 18:21:36 10° SSW 18:27:14 85° WNW 18:32:43 10° N
Cosmos 1242 Rocket 2.8 18:23:40 10° NNW 18:27:21 69° W 18:31:00 10° S
Unknown 3.6 18:24:10 10° WSW 18:28:19 83° NNW 18:30:02 34° ENE
Cosmos 1328 3.9 18:25:18 10° NNW 18:29:18 75° W 18:33:15 10° S
Unknown 3.6 18:25:48 10° WSW 18:29:57 81° NNW 18:31:36 35° ENE
Unknown 4.1 18:26:59 10° W 18:30:47 50° NNW 18:32:18 31° NE
Cosmos 1844 Rocket 3.1 18:25:12 10° SW 18:30:50 66° WNW 18:36:29 10° NNE
ADEOS Rocket 4.0 18:23:58 10° NNE 18:30:54 34° E 18:37:29 10° SSE
Unknown 2.6 18:28:58 10° WNW 18:31:23 69° NW 18:31:23 69° NW
Unknown 3.7 18:27:42 10° WSW 18:31:51 76° NNW 18:33:29 36° NE
Cosmos 1153 Rocket 4.5 18:27:05 10° N 18:33:09 56° ENE 18:38:15 15° SSE
Unknown 3.6 18:29:06 10° WSW 18:33:15 78° NNW 18:34:47 38° ENE
Cosmos 1908 3.1 18:29:49 10° S 18:33:42 70° E 18:37:36 10° NNE
Unknown 3.6 18:30:49 10° WSW 18:34:58 77° NNW 18:36:25 39° NE
Unknown 4.2 18:31:48 10° W 18:35:30 45° NNW 18:36:44 33° NE
Unknown 4.3 18:34:02 10° WNW 18:37:35 40° N 18:38:33 33° NNE
Unknown 3.7 18:34:06 10° WSW 18:38:15 74° NNW 18:39:34 42° NE
Unknown 3.7 18:35:49 10° WSW 18:39:58 73° NNW 18:41:14 43° NE
SPOT 3 Rocket 3.8 18:39:51 38° ESE 18:41:07 46° ENE 18:46:05 10° N
Unknown 4.0 18:38:00 10° WNW 18:41:13 37° N 18:41:24 37° NNE
Unknown 3.7 18:37:28 10° WSW 18:41:37 72° NNW 18:42:49 44° NE
Meteor 2-10 4.0 18:36:33 10° SSW 18:41:41 81° WNW 18:46:45 10° N
Ariane Rocket 3.1 18:37:01 10° S 18:42:07 76° WSW 18:47:15 10° NNW
Unknown 3.7 18:39:11 10° WSW 18:43:18 70° NNW 18:44:25 46° NE
Cosmos 2278 Rocket 2.4 18:38:54 10° S 18:44:15 45° ESE 18:46:33 30° ENE
Cosmos 489 Rocket 4.3 18:40:01 10° SSW 18:46:13 79° ESE 18:52:27 10° NNE
Unknown 3.8 18:42:30 10° WSW 18:46:38 68° NNW 18:47:37 48° NE
Cosmos 1844 4.1 18:41:31 10° SW 18:47:11 64° WNW 18:52:57 10° NNE
Unknown 3.8 18:44:16 10° WSW 18:48:24 66° NNW 18:49:19 48° NE
Unknown 3.9 18:44:30 10° WSW 18:48:36 63° NNW 18:49:33 47° NE
Falcon 9 debris 4.1 18:45:31 10° WNW 18:48:41 38° N 18:48:41 38° N
USA 238 DEB 4.5 18:43:08 10° S 18:47:26 29° SE 18:47:26 29° SE
Cosmos 2058 4.3 18:45:57 10° N 18:48:12 25° NNE 18:48:12 25° NNE
Unknown 4.1 18:46:40 10° WNW 18:49:56 38° N 18:49:56 38° N
Unknown 3.9 18:46:05 10° WSW 18:50:13 62° NNW 18:51:05 48° NE
Unknown 3.9 18:49:07 10° WSW 18:53:14 64° NNW 18:53:57 53° NNE
Unknown 3.9 18:52:28 10° W 18:56:35 62° NNW 18:57:09 55° NNE
USA 234 3.9 18:57:29 33° SE 18:57:29 33° SE 19:02:48 10° SSW
Unknown 3.9 18:54:12 10° W 18:58:19 61° NNW 18:58:49 55° NNE
Unknown 3.9 18:55:49 10° W 18:59:55 60° NNW 19:00:21 56° NNE
H-2A R/B 2.1 18:59:39 54° E 19:00:08 56° ENE 19:05:24 10° N
Cosmos 1777 Rocket 4.1 18:55:53 10° NNW 19:01:07 74° WSW 19:03:37 31° S
SJ-11-01 4.2 18:59:51 42° SSE 19:01:27 90° WSW 19:06:11 10° NNW
Unknown 3.9 18:57:32 10° W 19:01:38 59° NNW 19:02:00 56° N
Unknown 4.4 18:59:35 10° WNW 19:01:36 36° NW 19:01:36 36° NW
ATLAS 5 CENTAUR R/B 3.2 18:59:32 10° W 19:03:35 34° NW 19:07:08 15° NNE
SL-4 R/B 3.8 19:04:03 10° W 19:06:48 19° SW 19:07:19 19° SSW
Unknown 4.1 19:04:05 10° W 19:08:05 53° NNW 19:08:10 53° NNW
Unknown 4.0 19:04:12 10° W 19:08:17 56° NNW 19:08:22 56° N
Unknown 4.1 19:05:51 10° W 19:09:56 55° NNW 19:09:57 55° NNW
CZ-2C R/B 3.6 19:10:54 47° ENE 19:10:54 47° ENE 19:16:10 10° N
Unknown 4.1 19:07:33 10° W 19:11:35 55° NNW 19:11:35 55° NNW
Unknown 4.2 19:09:13 10° W 19:13:09 54° NNW 19:13:09 54° NNW
Unknown 4.2 19:10:51 10° W 19:14:43 53° NNW 19:14:43 53° NNW
Gbstr 26 Del rocket 4.1 19:09:13 10° WNW 19:15:36 84° NNE 19:17:24 55° E
Cosmos 1076 Rocket 3.8 19:11:14 10° N 19:14:49 59° N 19:14:49 59° N
Cosmos 1461 3.7 19:13:02 10° NW 19:15:58 44° NNW 19:15:58 44° NNW
Unknown 4.3 19:14:16 10° W 19:17:59 50° NW 19:17:59 50° NW
NOSS 3-3 (A) 4.5 19:12:09 10° NW 19:19:29 67° NE 19:21:23 52° ESE
NOSS 3-3 (C) 4.5 19:12:15 10° NW 19:19:35 67° NE 19:21:28 52° E
Starlink (trailer) 4.4 19:15:55 10° W 19:19:33 49° NW 19:19:33 49° NW
Unknown 4.4 19:17:36 10° W 19:21:10 48° NW 19:21:10 48° NW
SJ-6B 4.1 19:25:01 35° NNW 19:25:01 35° NNW 19:27:20 10° NNW
Lacrosse 5 2.2 19:22:41 10° NW 19:27:11 59° N 19:27:11 59° N
BREEZE-M DEB (TANK) 3.6 19:21:36 10° WSW 19:27:40 44° SSW 19:27:40 44° SSW
Cosmos 1833 Rocket 2.8 19:25:08 10° NNW 19:30:44 69° WSW 19:31:28 62° SSW
Cosmos 1459 Rocket 3.8 19:25:12 10° N 19:31:25 86° E 19:32:12 70° SSE
Resurs 01 Rocket 3.5 19:35:40 23° N 19:35:40 23° N 19:37:25 10° N
ARGOS 3.1 19:34:27 85° W 19:34:27 85° W 19:39:51 10° NNW
Cosmos 1727 Rocket 4.3 19:28:51 10° SSW 19:34:58 63° WNW 19:41:07 10° N
Cosmos 1802 Rocket 3.9 19:32:15 10° N 19:38:45 82° E 19:38:55 81° ESE
Cosmos 2082 Rocket 2.3 19:40:34 10° NNW 19:45:57 72° W 19:45:57 72° W
ATLAS CENTAUR R/B 4.2 19:45:23 10° N 19:46:39 12° N 19:46:39 12° N
Cosmos 2173 Rocket 4.1 19:44:39 10° NNW 19:50:56 70° W 19:51:41 63° SW
SJ 16-02 3.8 19:53:41 10° NNW 19:54:38 16° N 19:54:38 16° N
Cosmos 1725 Rocket 4.5 20:00:09 10° N 20:04:50 53° N 20:04:50 53° N
ADEOS Rocket 3.9 20:09:05 10° N 20:16:46 62° WNW 20:24:03 10° SW
Cosmos 2278 Rocket 3.5 20:23:16 10° WSW 20:28:28 36° NW 20:28:36 36° NW
H-2A R/B 4.1 20:40:18 23° W 20:40:18 23° W 20:44:10 10° NW
